Weather in Bauchi

Nigeria     10°18′22″N   9°50′50″E
temp.,
°C
wind,
m/s
gust,
m/s
humid.,
%
clouds,
%
prec.,
mm/h
press.,
hPa
HPBL,
m
11 may, tue
tue1101:00+24sse3569100 0.0 1012235
04:00+24sw3772100 0.0 1011278
07:00+25wsw236420 0.0 1012109
10:00+32s11365 0.0 1013905
13:00+36ene132520 0.0 10102270
16:00+37ne24209 0.0 10073278
19:00+33se3527100 0.0 1008210
22:00+32sse483397 0.0 1011554
12 may, wed
wed1201:00+29s22480 0.0 101050
04:00+27s345388 0.0 1010116
07:00+27sw23574 0.0 1011161
10:00+33sw11373 0.0 10121165
13:00+38ese17235 0.0 10093355
16:00+37e641993 0.0 10053539
19:00+34se3525100 0.1 1008219
22:00+32se1232100 0.0 100980
13 may, thu
thu1301:00+29sse224095 0.0 100838
04:00+27ssw235690 0.0 100894
07:00+27sw365968 0.0 1010354
10:00+31ssw3443100 0.0 10111020
13:00+37s232798 0.0 10072152
16:00+37ese452184 0.0 10053425
19:00+34ese4733100 0.0 1007474
22:00+30sse4848100 0.0 1009464
14 may, fri
fri1401:00+27s486373 0.0 1009531
04:00+25s376739 0.0 1009304
07:00+26s256597 0.0 1010252
10:00+32sw3440100 0.0 1010805
13:00+35sse3429100 0.0 10081979
16:00+37ese3624100 0.0 10052495
19:00+33ese223198 0.0 100619
22:00+31sse253895 0.0 1009108
15 may, sat
sat1501:00+28ssw1245100 0.0 100932
04:00+25s4770100 1.0 1009328
07:00+26ssw4767100 1.0 1011344
10:00+32ssw454397 0.0 1011901
13:00+36sse252854 0.0 10082529
16:00+36ese6625100 0.0 10051930
19:00+33se5933100 0.0 1007387
22:00+28ene3456100 1.5 1012223